User: anonymous   Login
Location: Trois-Rivi�res
(46.3500°N, 72.5500°W)
Time: 18:47:14
(UTC-04:00)
Language:

SJ-11-01 - Orbit

View from above orbital plane
View from above orbital plane
View from above satellite
View from above satellite

Ground track
Ground track

The orbit data is extracted from the following two-line orbital elements,

1 36088U 09061A   17267.56533619  .00000077  00000-0  25730-4 0  9997
2 36088  98.1266 313.4632 0010753 322.7365  37.3089 14.59967828419143
Epoch (UTC): 24 September 2017 13:34:05
Eccentricity: 0.0010753
inclination: 98.1266°
perigee height: 685 km
apogee height: 701 km
right ascension of ascending node: 313.4632°
argument of perigee: 322.7365°
revolutions per day: 14.59967828
mean anomaly at epoch: 37.3089°
orbit number at epoch: 41914

The dashed part of the orbit path shows where the satellite is in the earth's shadow,  

DLR